Regional Weather Roundup
Issued by NWS

Home | Current Version | Previous Version | Graphics & Text | Print | Product List | Glossary On
Versions: 1 2 3 4 5 6 7 8 9 10 11 12 13 14 15 16 17 18 19 20 21 22 23 24 25 26 27 28 29 30 31 32 33 34 35 36 37 38 39 40 41 42 43 44 45 46 47 48 49 50
647
ASUS43 KDMX 291308
RWRIA

WEATHER ROUNDUP FOR IOWA
NATIONAL WEATHER SERVICE DES MOINES IA
800 AM CDT THU SEP 29 2016

NOTE: "FAIR" INDICATES FEW OR NO CLOUDS BELOW 12,000 FEET WITH NO
SIGNIFICANT WEATHER AND/OR OBSTRUCTIONS TO VISIBILITY.

* - THESE STATIONS ARE NOT NWS STATIONS...THUS NOT UNDER NWS
QUALITY CONTROL.  THEY ALSO DO NOT REPORT WEATHER SUCH
AS PRECIPITATION OR FOG.

IAZ001>003-012>014-020>022-031>034-043>046-291400-
   NORTHWEST IOWA

CITY           SKY/WX    TMP DP  RH WIND       PRES   REMARKS
CARROLL *      PTCLDY    46  46 100 NW5       30.41R
CHEROKEE *     CLEAR     43  43 100 NE3       30.44R
DENISON *      CLEAR     45  45 100 CALM      30.41R FOG
LE MARS *      CLEAR     41  41 100 CALM      30.46R
ORANGE CITY *  CLEAR     46  45  93 CALM      30.44R
SHELDON *      CLOUDY    39  39 100 CALM      30.43S FOG
SIOUX CITY     CLOUDY    43  42  97 NW3       30.45R
SPENCER        CLEAR     42  42 100 NW5       30.44R
STORM LAKE *   CLEAR     48  46  93 N7        30.43R
$$

IAZ055>058-069>071-079>083-090>094-291400-
   SOUTHWEST IOWA

CITY           SKY/WX    TMP DP  RH WIND       PRES   REMARKS
ATLANTIC *     CLEAR     45  45 100 CALM      30.40R
AUDUBON *      PTCLDY    46  45  93 CALM      30.41R
CLARINDA *       N/A     46  46 100 MISG      30.41R FOG
COUNCIL BLFS * CLEAR     46  46 100 N7        30.41R
CRESTON *      CLEAR     48  48 100 N8        30.39R
HARLAN  *      CLEAR     45  45 100 NE3       30.44R
LAMONI         CLEAR     50  48  93 N13       30.36R
RED OAK *      CLEAR     46  46 100 N5        30.41R
SHENANDOAH *   CLEAR     46  45  93 CALM      30.41R FOG
$$

IAZ047>049-059>061-072>074-084-291400-
   CENTRAL IOWA

CITY           SKY/WX    TMP DP  RH WIND       PRES   REMARKS
AMES           PTCLDY    49  49 100 N7        30.39R
ANKENY *         N/A    N/A N/A N/A MISG        N/A
BOONE *        CLEAR     46  46 100 N8        30.38S
CHARITON *       N/A     50  48  93 N9        30.35R
DES MOINES     PTCLDY    52  49  89 N7        30.37R
GRINNELL*      CLEAR     50  49  95 NW6       30.36R
KNOXVILLE *    CLEAR     52  50  93 N9        30.34R
MARSHALLTOWN   CLEAR     51  50  96 N8        30.36R
NEWTON *       CLEAR     50  48  93 N10       30.35R
PELLA *        CLEAR     50  49  97 N9        30.36R
PERRY *          N/A     47  47 100 N5        30.40R
$$

IAZ004>006-015-016-023>025-035-036-291400-
   NORTH CENTRAL IOWA

CITY           SKY/WX    TMP DP  RH WIND       PRES   REMARKS
ALGONA *       FOG       48  46  93 N7        30.43R VSB 1/4
CLARION *      FOG       50  50 100 NE7       30.41R VSB 1/4
ESTHERVILLE    CLEAR     44  44 100 N6        30.43R
FORT DODGE *   MOCLDY    46  43  87 N6        30.42R
MASON CITY     CLOUDY    52  50  93 N6        30.43R
FOREST CITY *  CLOUDY    50  50 100 NE8       30.43R FOG
WEBSTER CITY * FOG       48  48 100 N7        30.39R VSB<1/4
IOWA FALLS *     N/A     51  49  94 N7        30.40R
$$

IAZ007>011-017>019-026>030-037>042-050>054-066-291400-
   NORTHEAST IOWA

CITY           SKY/WX    TMP DP  RH WIND       PRES   REMARKS
CEDAR RAPIDS   CLEAR     52  51  97 N15       30.30R
CHARLES CITY * CLEAR     50  50 100 N6        30.39S
CLINTON *      PTSUNNY   53  51  93 N12       30.26R
DECORAH *      CLEAR     50  50 100 N8        30.37R
DUBUQUE        MOSUNNY   51  49  92 N13       30.31R
MONTICELLO *   SUNNY     52  50  93 N10       30.30S
OELWEIN *      CLEAR     50  50 100 N13       30.36R
WATERLOO       CLEAR     50  48  93 N9        30.36R
$$

IAZ064-065-067-068-078-291400-
   EAST CENTRAL IOWA

CITY           SKY/WX    TMP DP  RH WIND       PRES   REMARKS
DAVENPORT      CLOUDY    52  50  93 N14       30.27R
IOWA CITY      CLEAR     54  50  86 N12       30.30S
MT. PLEASANT * SUNNY     54  53  97 N14       30.28R
MUSCATINE *    SUNNY     55  50  82 N8G16     30.28R
QUAD CITIES    CLOUDY    55  50  83 N8G17     30.25R
$$

IAZ062-063-075>077-085>089-095>099-291400-
   SOUTHEAST IOWA

CITY           SKY/WX    TMP DP  RH WIND       PRES   REMARKS
BURLINGTON     CLOUDY    52  51  97 N12       30.25R
FAIRFIELD *    CLEAR     52  48  87 N9G16     30.29R
FORT MADISON * MOSUNNY   52  50  93 N8        30.27R
KEOKUK *       SUNNY     52  50  93 NW7       30.25R
OSKALOOSA *      N/A     50  49  98 N12       30.32S
OTTUMWA        CLEAR     51  48  89 N9        30.31S
WASHINGTON *     N/A    N/A N/A N/A MISG        N/A
$$

ABBREVIATIONS USED IN REMARKS
   TC - TEMPERATURES IN CELSIUS
  WCI - WIND CHILL INDEX
   HX - HEAT INDEX
  VSB - VISIBILITY
$$





USA.gov is the U.S. government's official web portal to all federal, state and local government web resources and services.